Weather in Kryukovo

Russia / Moscow Oblast     55°05′56″N   37°32′47″E
В апреле 2022 года жителям России запретили посещать сайт meteo.paraplan.net по решению Генеральной прокуратуры. Аудитория сайта уменьшилась в 10 раз. Владельцы сайта не видят смысла в поддержке погодного сервера в таких условиях. Сайт будет закрыт в октябре.
temp.,
°C
wind,
m/s
gust,
m/s
humid.,
%
clouds,
%
prec.,
mm/h
press.,
hPa
HPBL,
m
4 october, tue
tue400:00+10sse81581100 0.1 10021309
03:00+10sse81576100 0.1 10031406
06:00+9sse81576100 0.0 10041444
09:00+10sse71575100 0.0 10051298
12:00+8sw5989100 0.6 1007878
15:00+7s51288100 1.7 10091194
18:00+7sse41186100 0.2 1009616
21:00+6ssw61089100 0.4 1009982
5 october, wed
wed500:00+6s3893100 0.3 10091204
03:00+6ssw4890100 0.9 10101025
06:00+6sw4891100 0.2 1011773
09:00+6ssw3693100 0.7 10111029
12:00+6w4693100 0.8 1013892
15:00+6wsw4785100 1.1 1015706
18:00+6w4888100 0.1 1016621
21:00+6wsw3792100 0.2 1016561
6 october, thu
thu600:00+5w3795100 0.0 1017414
03:00+5w269736 0.1 1018288
06:00+3w239935 0.0 101882
09:00+6w1393100 0.0 1019217
12:00+8wsw2486100 0.0 1019310
15:00+10ssw2590100 0.0 1018286
18:00+10ssw2797100 0.0 1018235
21:00+9ssw3109732 0.0 1018279
7 october, fri
fri700:00+9sw31197100 0.0 1017346
03:00+8wsw4119725 0.0 1017359
06:00+9w41297100 0.0 1018546
09:00+11wnw411840 0.0 1020624
12:00+11wnw5979100 0.1 1023978
15:00+13wnw596597 0.1 10231221
18:00+9w37840 0.0 1024157
21:00+7w39950 0.0 1026230
8 october, sat
sat800:00+6wsw27960 0.0 1026155
03:00+6wsw25961 0.0 1026107
06:00+5sw26975 0.0 1026126
09:00+8sw38875 0.0 1026292
12:00+13sw46695 0.0 1024735
15:00+14ssw47645 0.0 1022976
18:00+10ssw398370 0.0 1021238
21:00+9ssw41385100 0.0 1020382